Flag for Canada Weather past 2 weeks in Cape Dorset, Nunavut Territory, Canada

Now
52 °F

Passing clouds.


Feels Like: 49 °F
Forecast: 47 / 58 °F
Wind: 7 mph from Northeast

Location: Cape Dorset

Current Time: Jul 26, 2014 at 1:58:04 AM

Latest Report: Jul 26, 2014 at 1:00 AM


Visibility: 9 mi

Pressure: 29.89 "Hg

Humidity: 82%

Dew point: 46 °F

Location of Cape DorsetLocation

Historic Weather in Cape Dorset — Graph

°F

Cape Dorset temperature yesterday

Maximum temperature yesterday: 61 °F (at 1:00 PM)
Minimum temperature yesterday: 52 °F (at 12:00 AM)
Average temperature yesterday: 57 °F

Past Weeks' High & Low Weather Summary

 TemperatureHumidityPressure
High68 °F (Jul 13, 3:00 PM)100% (Jul 16, 6:53 AM)30.11 "Hg (Jul 16, 6:53 AM)
Low37 °F (Jul 17, 12:00 AM)22% (Jul 14, 2:00 PM)29.39 "Hg (Jul 23, 6:00 AM)
Average50 °F73%29.74 "Hg
* Reported Midnight between Jul 10 and Jul 11 — Midnight between Jul 25 and Jul 26, Cape Dorset, Weather by CustomWeather, © 2014

Note: Actual official high and low records may vary slightly from our data, if they occured in-between our weather recording intervals... More about our weather records

Advertising

Cape Dorset weather history for previous 24 hours

 ConditionsComfort  
Time TempWeatherWind HumidityBarometerVisibility
12:00 AM
Jul 26
54 °FClear.7 mph82%29.87 "Hg9 mi
11:00 PM
Jul 25
57 °FMostly cloudy.5 mph72%29.87 "Hg9 mi
10:00 PM57 °FPassing clouds.6 mph72%29.86 "Hg9 mi
9:00 PM61 °FSunny.5 mph68%29.85 "Hg9 mi
8:00 PM61 °FSunny.3 mph68%29.85 "Hg9 mi
7:00 PM61 °FSunny.3 mph68%29.84 "Hg9 mi
6:00 PM61 °FSunny.3 mph68%29.83 "Hg9 mi
5:00 PM59 °FScattered clouds.8 mph72%29.84 "Hg15 mi
4:00 PM61 °FBroken clouds.12 mph68%29.84 "Hg15 mi
3:00 PM59 °FPartly sunny.7 mph72%29.84 "Hg15 mi
2:00 PM59 °FPartly sunny.7 mph72%29.85 "Hg15 mi
1:00 PM61 °FMostly cloudy.3 mph72%29.85 "Hg15 mi
12:00 PM57 °FOvercast.3 mph72%29.87 "Hg15 mi
11:00 AM55 °FOvercast.3 mph77%29.88 "Hg15 mi
10:00 AM54 °FOvercast.2 mph77%29.89 "Hg15 mi
9:00 AM55 °FLight rain. Overcast.3 mph72%29.90 "Hg15 mi
8:00 AM55 °FLight rain. Overcast.3 mph72%29.90 "Hg15 mi
7:57 AM55 °FLight rain. Overcast.5 mph72%29.90 "Hg15 mi
7:00 AM55 °FOvercast.No wind72%29.90 "Hg15 mi
6:00 AM54 °FOvercast.6 mph77%29.90 "Hg9 mi
5:58 AM54 °FOvercast.5 mph77%29.90 "Hg9 mi
5:00 AM54 °FOvercast.No wind77%29.89 "Hg9 mi
4:00 AM54 °FPassing clouds.5 mph77%29.90 "Hg9 mi
3:00 AM54 °FSunny.5 mph77%29.89 "Hg9 mi
2:00 AM54 °FClear.5 mph77%29.89 "Hg9 mi
1:00 AM54 °FClear.13 mph72%29.88 "Hg9 mi
Weather by CustomWeather, © 2014

See weather overviewHow to use our weather pages